Location: Lafig�re
(44.4503°N, 4.0357°E)
Time: 05:28:31
(UTC+00:00)

Transit 2A Rocket - Pass Details

Date: 19 June 2021
Orbit: 590 x 913 km, 66.7° (Epoch: 26 July)

Event Time Altitude Azimuth Distance (km) Brightness Sun altitude
Exits shadow 23:57:59 57° 123° (ESE) 701 4.6 -22.1°
Maximum altitude 23:58:04 58° 118° (ESE) 700 4.6 -22.1°
Drops below altitude 10° 00:02:23 10° 39° (NE) 1,977 7.9 -22.0°
Sets 00:04:44 0° 36° (NE) 2,920 9.0 -22.0°
